FHA12E ELLX-LIMC

Flight info

Callsign FHA12E
Flight time 0h 55m
Altitude 35000
Route GTQ2Q GTQ A242 POGOL DCT LASAT DCT SHARA DCT DEVDI DCT BASGO/N0452F290 Z424 AKASU/N0384F190 Z424 RIXUV RIXUV3E
Aircraft A321/M-SDE3FGHIRWY/LB1

Departure

Time 2026-05-05 18:27
Airport Luxembourg-Findel International Airport (ELLX)

Arrival

Time 2026-05-05 19:22
Airport Milan Malpensa International Airport (LIMC)
Time Latitude Longitude Altitude Speed Heading
2026-05-05 17:47 49.63151 6.21379 1230 ft 0 kts 60°
2026-05-05 18:13 49.63149 6.21372 1230 ft 4 kts 60°
2026-05-05 18:14 49.63138 6.21342 1230 ft 4 kts 63°
2026-05-05 18:14 49.63137 6.21316 1231 ft 4 kts 142°
2026-05-05 18:14 49.63158 6.21296 1231 ft 4 kts 150°
2026-05-05 18:14 49.63163 6.21291 1232 ft 0 kts 150°
2026-05-05 18:20 49.63160 6.21294 1231 ft 2 kts 150°
2026-05-05 18:20 49.63125 6.21325 1231 ft 9 kts 150°
2026-05-05 18:20 49.63067 6.21377 1230 ft 11 kts 150°
2026-05-05 18:20 49.62994 6.21370 1229 ft 12 kts 230°
2026-05-05 18:21 49.62958 6.21261 1232 ft 11 kts 244°
2026-05-05 18:21 49.62925 6.21158 1233 ft 12 kts 244°
2026-05-05 18:21 49.62882 6.21016 1233 ft 15 kts 243°
2026-05-05 18:21 49.62836 6.20878 1238 ft 13 kts 244°
2026-05-05 18:22 49.62793 6.20752 1244 ft 16 kts 234°
2026-05-05 18:22 49.62704 6.20630 1247 ft 18 kts 217°
2026-05-05 18:22 49.62613 6.20493 1243 ft 20 kts 228°
2026-05-05 18:22 49.62514 6.20315 1229 ft 22 kts 231°
2026-05-05 18:23 49.62435 6.20114 1217 ft 20 kts 241°
2026-05-05 18:23 49.62368 6.19932 1206 ft 18 kts 240°
2026-05-05 18:23 49.62301 6.19755 1196 ft 19 kts 240°
2026-05-05 18:23 49.62237 6.19583 1187 ft 14 kts 237°
2026-05-05 18:24 49.62157 6.19580 1189 ft 10 kts 153°
2026-05-05 18:24 49.62098 6.19643 1191 ft 9 kts 107°
2026-05-05 18:24 49.62106 6.19699 1195 ft 0 kts 63°
2026-05-05 18:26 49.62108 6.19706 1196 ft 8 kts 63°
2026-05-05 18:26 49.62258 6.20113 1219 ft 77 kts 60°
2026-05-05 18:26 49.62628 6.21109 1238 ft 136 kts 60°
2026-05-05 18:26 49.63174 6.22588 1413 ft 168 kts 60°
2026-05-05 18:27 49.63754 6.24122 2082 ft 165 kts 61°
2026-05-05 18:27 49.64323 6.25659 2685 ft 165 kts 62°
2026-05-05 18:27 49.64647 6.27360 3077 ft 178 kts 96°
2026-05-05 18:27 49.64116 6.29144 3257 ft 195 kts 136°
2026-05-05 18:28 49.61814 6.32090 3545 ft 237 kts 142°
2026-05-05 18:28 49.60474 6.33776 3895 ft 256 kts 142°
2026-05-05 18:28 49.59076 6.35542 4595 ft 262 kts 142°
2026-05-05 18:29 49.57657 6.37343 5343 ft 266 kts 142°
2026-05-05 18:29 49.56219 6.39170 6079 ft 270 kts 145°
2026-05-05 18:29 49.54579 6.40596 6749 ft 272 kts 158°
2026-05-05 18:29 49.52850 6.41808 7461 ft 275 kts 158°
2026-05-05 18:30 49.51129 6.42998 8189 ft 277 kts 158°
2026-05-05 18:30 49.49361 6.44218 8917 ft 280 kts 158°
2026-05-05 18:30 49.47570 6.45454 9670 ft 283 kts 158°
2026-05-05 18:30 49.45746 6.46712 10150 ft 296 kts 158°
2026-05-05 18:31 49.43791 6.48055 10317 ft 319 kts 158°
2026-05-05 18:31 49.41693 6.49498 10450 ft 341 kts 158°
2026-05-05 18:31 49.39487 6.51020 10829 ft 353 kts 158°
2026-05-05 18:31 49.37233 6.52580 11434 ft 357 kts 158°
2026-05-05 18:32 49.34955 6.54161 12076 ft 361 kts 158°
2026-05-05 18:32 49.32692 6.55734 12722 ft 364 kts 158°
2026-05-05 18:32 49.30373 6.57339 13372 ft 367 kts 158°
2026-05-05 18:32 49.28028 6.58955 13966 ft 371 kts 158°
2026-05-05 18:33 49.25667 6.60577 14550 ft 374 kts 158°
2026-05-05 18:33 49.23273 6.62159 15139 ft 376 kts 162°
2026-05-05 18:33 49.20757 6.63253 15727 ft 377 kts 168°
2026-05-05 18:33 49.18195 6.64220 16329 ft 380 kts 168°
2026-05-05 18:34 49.15616 6.65191 16922 ft 383 kts 168°
2026-05-05 18:34 49.13063 6.66153 17554 ft 384 kts 168°
2026-05-05 18:34 49.10459 6.67138 18149 ft 387 kts 168°
2026-05-05 18:34 49.07836 6.68129 18637 ft 390 kts 167°
2026-05-05 18:35 49.05185 6.69133 19144 ft 393 kts 167°
2026-05-05 18:35 49.02523 6.70141 19663 ft 396 kts 167°
2026-05-05 18:35 48.99838 6.71118 20164 ft 398 kts 171°
2026-05-05 18:35 48.97085 6.71550 20655 ft 399 kts 180°
2026-05-05 18:36 48.94309 6.71457 21137 ft 401 kts 182°
2026-05-05 18:36 48.91514 6.71340 21609 ft 403 kts 182°
2026-05-05 18:36 48.88697 6.71227 22080 ft 405 kts 181°
2026-05-05 18:36 48.85876 6.71117 22581 ft 407 kts 181°
2026-05-05 18:37 48.83077 6.71009 23074 ft 408 kts 181°
2026-05-05 18:37 48.80234 6.70899 23506 ft 410 kts 181°
2026-05-05 18:37 48.77368 6.70785 23885 ft 412 kts 181°
2026-05-05 18:37 48.74495 6.70669 24255 ft 415 kts 181°
2026-05-05 18:38 48.71608 6.70552 24618 ft 417 kts 181°
2026-05-05 18:38 48.68697 6.70439 24979 ft 419 kts 181°
2026-05-05 18:38 48.65772 6.70326 25339 ft 421 kts 181°
2026-05-05 18:38 48.62835 6.70214 25695 ft 424 kts 181°
2026-05-05 18:39 48.59881 6.70099 26046 ft 426 kts 181°
2026-05-05 18:39 48.56913 6.69982 26390 ft 428 kts 181°
2026-05-05 18:39 48.53965 6.69867 26722 ft 430 kts 180°
2026-05-05 18:39 48.50965 6.69756 27044 ft 432 kts 180°
2026-05-05 18:40 48.47951 6.69644 27373 ft 435 kts 180°
2026-05-05 18:40 48.44918 6.69529 27712 ft 437 kts 181°
2026-05-05 18:40 48.41873 6.69416 28043 ft 439 kts 181°
2026-05-05 18:40 48.38808 6.69300 28375 ft 441 kts 181°
2026-05-05 18:41 48.35731 6.69180 28704 ft 444 kts 181°
2026-05-05 18:41 48.32644 6.69056 29132 ft 443 kts 181°
2026-05-05 18:41 48.29569 6.68933 29591 ft 442 kts 181°
2026-05-05 18:41 48.26538 6.68814 30023 ft 441 kts 181°
2026-05-05 18:42 48.23472 6.68696 30399 ft 440 kts 181°
2026-05-05 18:42 48.20415 6.68579 30807 ft 438 kts 182°
2026-05-05 18:42 48.17374 6.68460 31200 ft 437 kts 182°
2026-05-05 18:42 48.14336 6.68344 31574 ft 436 kts 182°
2026-05-05 18:43 48.11301 6.68232 31947 ft 436 kts 182°
2026-05-05 18:43 48.08276 6.68120 32298 ft 435 kts 182°
2026-05-05 18:43 48.05286 6.68156 32625 ft 435 kts 175°
2026-05-05 18:43 48.02292 6.69101 32959 ft 437 kts 162°
2026-05-05 18:44 47.99576 6.71019 33255 ft 440 kts 149°
2026-05-05 18:44 47.97181 6.73903 33540 ft 445 kts 136°
2026-05-05 18:44 47.95289 6.77575 33832 ft 450 kts 122°
2026-05-05 18:44 47.93962 6.81824 34047 ft 454 kts 115°
2026-05-05 18:45 47.92783 6.86203 34274 ft 455 kts 115°
2026-05-05 18:45 47.91600 6.90575 34510 ft 455 kts 115°
2026-05-05 18:45 47.90408 6.94946 34747 ft 455 kts 115°
2026-05-05 18:45 47.89210 6.99316 34852 ft 456 kts 115°
2026-05-05 18:46 47.86831 7.08004 34878 ft 455 kts 115°
2026-05-05 18:46 47.84441 7.16732 34862 ft 455 kts 115°
2026-05-05 18:47 47.82043 7.25452 34875 ft 455 kts 116°
2026-05-05 18:47 47.79629 7.34165 34886 ft 455 kts 116°
2026-05-05 18:48 47.77206 7.42862 34887 ft 455 kts 116°
2026-05-05 18:48 47.74218 7.50975 34871 ft 448 kts 133°
2026-05-05 18:49 47.69671 7.57114 34864 ft 439 kts 151°
2026-05-05 18:49 47.64214 7.61019 34849 ft 436 kts 160°
2026-05-05 18:50 47.58653 7.64617 34858 ft 436 kts 160°
2026-05-05 18:50 47.53091 7.68238 34862 ft 436 kts 160°
2026-05-05 18:51 47.47561 7.71805 34882 ft 437 kts 160°
2026-05-05 18:51 47.41982 7.75385 34894 ft 437 kts 160°
2026-05-05 18:52 47.36399 7.78950 34912 ft 437 kts 160°
2026-05-05 18:52 47.30811 7.82514 34923 ft 438 kts 161°
2026-05-05 18:53 47.25225 7.86069 34938 ft 437 kts 161°
2026-05-05 18:53 47.19679 7.89594 34943 ft 437 kts 161°
2026-05-05 18:54 47.14091 7.93147 34946 ft 437 kts 161°
2026-05-05 18:54 47.08508 7.96693 34934 ft 437 kts 161°
2026-05-05 18:55 47.02923 8.00227 34941 ft 437 kts 161°
2026-05-05 18:55 46.97379 8.03717 34946 ft 437 kts 161°
2026-05-05 18:56 46.91793 8.07223 34844 ft 437 kts 161°
2026-05-05 18:56 46.89003 8.08974 34592 ft 435 kts 162°
2026-05-05 18:56 46.86219 8.10721 34358 ft 435 kts 162°
2026-05-05 18:57 46.83441 8.12462 34123 ft 435 kts 162°
2026-05-05 18:57 46.80660 8.14202 33896 ft 435 kts 162°
2026-05-05 18:57 46.77918 8.15915 33584 ft 434 kts 163°
2026-05-05 18:57 46.75142 8.17652 33308 ft 434 kts 163°
2026-05-05 18:58 46.72366 8.19386 33040 ft 434 kts 163°
2026-05-05 18:58 46.69587 8.21114 32767 ft 435 kts 163°
2026-05-05 18:58 46.66800 8.22842 32496 ft 435 kts 163°
2026-05-05 18:58 46.64021 8.24568 32149 ft 434 kts 163°
2026-05-05 18:59 46.61226 8.26304 31282 ft 439 kts 163°
2026-05-05 18:59 46.58412 8.28050 30434 ft 442 kts 163°
2026-05-05 18:59 46.55610 8.29787 29514 ft 445 kts 162°
2026-05-05 18:59 46.52757 8.31558 28604 ft 446 kts 162°
2026-05-05 19:00 46.49900 8.33336 27885 ft 444 kts 162°
2026-05-05 19:00 46.47088 8.35082 27365 ft 437 kts 162°
2026-05-05 19:00 46.44305 8.36801 26777 ft 432 kts 162°
2026-05-05 19:00 46.41566 8.38487 26208 ft 424 kts 162°
2026-05-05 19:01 46.38861 8.40147 25641 ft 419 kts 162°
2026-05-05 19:01 46.36224 8.41763 25084 ft 415 kts 161°
2026-05-05 19:01 46.33583 8.43381 24538 ft 411 kts 161°
2026-05-05 19:01 46.30966 8.44985 23980 ft 406 kts 162°
2026-05-05 19:02 46.28361 8.46500 23408 ft 399 kts 167°
2026-05-05 19:02 46.25697 8.47433 22815 ft 389 kts 176°
2026-05-05 19:02 46.23034 8.47839 22293 ft 382 kts 179°
2026-05-05 19:02 46.20403 8.48202 21766 ft 379 kts 178°
2026-05-05 19:03 46.17791 8.48572 21255 ft 375 kts 178°
2026-05-05 19:03 46.15200 8.48945 20764 ft 373 kts 178°
2026-05-05 19:03 46.12663 8.49315 20280 ft 372 kts 177°
2026-05-05 19:03 46.10117 8.50059 19791 ft 373 kts 167°
2026-05-05 19:04 46.07677 8.51330 19295 ft 372 kts 163°
2026-05-05 19:04 46.05263 8.52642 19040 ft 375 kts 163°
2026-05-05 19:04 46.02793 8.53972 18989 ft 379 kts 163°
2026-05-05 19:04 46.00378 8.55276 18935 ft 363 kts 163°
2026-05-05 19:05 45.98104 8.56511 18764 ft 335 kts 164°
2026-05-05 19:05 45.96010 8.57647 18242 ft 321 kts 164°
2026-05-05 19:05 45.93905 8.58776 17488 ft 313 kts 164°
2026-05-05 19:05 45.91921 8.59835 17202 ft 308 kts 164°
2026-05-05 19:06 45.89929 8.61036 16949 ft 314 kts 155°
2026-05-05 19:06 45.88144 8.62814 16689 ft 317 kts 146°
2026-05-05 19:06 45.86415 8.64832 16423 ft 316 kts 145°
2026-05-05 19:06 45.84709 8.66816 16077 ft 316 kts 145°
2026-05-05 19:07 45.82997 8.68803 15596 ft 317 kts 145°
2026-05-05 19:07 45.81280 8.70791 15147 ft 318 kts 145°
2026-05-05 19:07 45.79590 8.72749 14738 ft 317 kts 145°
2026-05-05 19:07 45.77884 8.74723 14401 ft 313 kts 145°
2026-05-05 19:08 45.76164 8.76593 13945 ft 307 kts 153°
2026-05-05 19:08 45.74304 8.78056 13316 ft 305 kts 155°
2026-05-05 19:08 45.72446 8.79479 12792 ft 300 kts 155°
2026-05-05 19:08 45.70620 8.80881 12343 ft 297 kts 155°
2026-05-05 19:09 45.68797 8.82277 11889 ft 298 kts 155°
2026-05-05 19:09 45.66974 8.83675 11529 ft 295 kts 155°
2026-05-05 19:09 45.65168 8.85063 11184 ft 290 kts 155°
2026-05-05 19:09 45.63459 8.86378 10889 ft 272 kts 155°
2026-05-05 19:10 45.61822 8.87536 10499 ft 259 kts 163°
2026-05-05 19:10 45.60120 8.88135 10255 ft 258 kts 172°
2026-05-05 19:10 45.58351 8.88606 10016 ft 258 kts 172°
2026-05-05 19:10 45.56594 8.89084 9866 ft 256 kts 171°
2026-05-05 19:11 45.54842 8.89564 9717 ft 257 kts 171°
2026-05-05 19:11 45.53095 8.90040 9463 ft 255 kts 171°
2026-05-05 19:11 45.51353 8.90515 9189 ft 254 kts 171°
2026-05-05 19:11 45.49624 8.90986 8860 ft 254 kts 171°
2026-05-05 19:12 45.47871 8.91461 8380 ft 259 kts 171°
2026-05-05 19:12 45.46122 8.91937 8167 ft 253 kts 171°
2026-05-05 19:12 45.44402 8.92405 7666 ft 257 kts 171°
2026-05-05 19:12 45.42672 8.92874 7199 ft 250 kts 171°
2026-05-05 19:13 45.40979 8.93335 6613 ft 245 kts 171°
2026-05-05 19:13 45.39338 8.93784 6145 ft 235 kts 171°
2026-05-05 19:13 45.37749 8.94216 5815 ft 230 kts 171°
2026-05-05 19:13 45.36178 8.94640 5785 ft 231 kts 171°
2026-05-05 19:14 45.34603 8.95066 5731 ft 230 kts 171°
2026-05-05 19:14 45.33029 8.95400 5669 ft 228 kts 182°
2026-05-05 19:14 45.31546 8.94749 5620 ft 226 kts 214°
2026-05-05 19:14 45.30557 8.93036 5570 ft 229 kts 246°
2026-05-05 19:15 45.30382 8.90781 5529 ft 236 kts 278°
2026-05-05 19:15 45.31080 8.88670 5361 ft 241 kts 307°
2026-05-05 19:15 45.32222 8.86921 5118 ft 241 kts 313°
2026-05-05 19:15 45.33409 8.85242 4871 ft 240 kts 314°
2026-05-05 19:16 45.34579 8.83594 4619 ft 239 kts 314°
2026-05-05 19:16 45.35756 8.81927 4357 ft 239 kts 314°
2026-05-05 19:16 45.37105 8.80580 4102 ft 238 kts 338°
2026-05-05 19:16 45.38712 8.80018 3857 ft 238 kts 349°
2026-05-05 19:17 45.40341 8.79583 3605 ft 238 kts 349°
2026-05-05 19:17 45.41958 8.79144 3434 ft 236 kts 349°
2026-05-05 19:17 45.43528 8.78714 3284 ft 223 kts 349°
2026-05-05 19:17 45.44997 8.78311 3193 ft 205 kts 350°
2026-05-05 19:18 45.46339 8.77942 3095 ft 190 kts 350°
2026-05-05 19:18 45.47617 8.77591 3018 ft 184 kts 350°
2026-05-05 19:18 45.48868 8.77248 3033 ft 183 kts 350°
2026-05-05 19:18 45.50120 8.76904 2982 ft 183 kts 350°
2026-05-05 19:19 45.51338 8.76570 2801 ft 181 kts 350°
2026-05-05 19:19 45.52570 8.76231 2593 ft 180 kts 351°
2026-05-05 19:19 45.53772 8.75899 2359 ft 167 kts 351°
2026-05-05 19:19 45.54868 8.75597 2122 ft 156 kts 351°
2026-05-05 19:20 45.55919 8.75308 1915 ft 151 kts 351°
2026-05-05 19:20 45.56946 8.75026 1696 ft 149 kts 351°
2026-05-05 19:20 45.57960 8.74746 1472 ft 147 kts 350°
2026-05-05 19:20 45.58957 8.74472 1278 ft 144 kts 349°
2026-05-05 19:21 45.59940 8.74206 1076 ft 143 kts 349°
2026-05-05 19:21 45.60895 8.73934 927 ft 141 kts 347°
2026-05-05 19:21 45.61860 8.73661 782 ft 141 kts 349°
2026-05-05 19:21 45.62712 8.73431 746 ft 104 kts 349°
2026-05-05 19:22 45.63261 8.73283 744 ft 64 kts 349°
2026-05-05 19:22 45.63617 8.73165 744 ft 42 kts 336°
2026-05-05 19:22 45.63784 8.72968 751 ft 20 kts 308°
2026-05-05 19:22 45.63849 8.72842 750 ft 10 kts 304°
2026-05-05 19:23 45.63885 8.72764 750 ft 10 kts 303°
2026-05-05 19:23 45.63925 8.72668 752 ft 13 kts 287°
2026-05-05 19:23 45.63868 8.72592 752 ft 15 kts 177°
2026-05-05 19:23 45.63759 8.72622 749 ft 17 kts 168°
2026-05-05 19:24 45.63635 8.72655 752 ft 19 kts 170°
2026-05-05 19:24 45.63502 8.72690 751 ft 17 kts 169°
2026-05-05 19:24 45.63409 8.72643 752 ft 16 kts 251°
2026-05-05 19:24 45.63386 8.72481 750 ft 17 kts 259°
2026-05-05 19:25 45.63362 8.72300 747 ft 20 kts 259°
2026-05-05 19:25 45.63341 8.72139 748 ft 13 kts 258°
2026-05-05 19:25 45.63326 8.72037 749 ft 8 kts 258°
2026-05-05 19:25 45.63324 8.72024 750 ft 0 kts 259°
2026-05-05 19:26 45.63323 8.72015 751 ft 3 kts 259°
2026-05-05 19:26 45.63311 8.71979 748 ft 6 kts 221°
2026-05-05 19:26 45.63249 8.71977 751 ft 11 kts 168°
2026-05-05 19:26 45.63173 8.71998 748 ft 12 kts 170°
2026-05-05 19:27 45.63084 8.72020 749 ft 15 kts 169°
2026-05-05 19:27 45.62968 8.72053 751 ft 19 kts 169°
2026-05-05 19:27 45.62836 8.72086 749 ft 20 kts 171°
2026-05-05 19:27 45.62696 8.72123 747 ft 21 kts 167°
2026-05-05 19:28 45.62550 8.72171 750 ft 22 kts 169°
2026-05-05 19:28 45.62428 8.72201 752 ft 14 kts 172°
2026-05-05 19:28 45.62364 8.72117 752 ft 15 kts 258°
2026-05-05 19:28 45.62343 8.71953 753 ft 16 kts 265°
2026-05-05 19:29 45.62425 8.71891 749 ft 15 kts 354°
2026-05-05 19:29 45.62521 8.71867 751 ft 12 kts 349°
2026-05-05 19:29 45.62563 8.71900 751 ft 7 kts 79°
2026-05-05 19:29 45.62570 8.71963 748 ft 0 kts 79°